[[{"header":{"parameterUnit":"m.s-1","parameterCategory":1,"la1":30.2991,"la2":30.254,"lo1":-89.0895,"lo2":-89.0444,"dy":0.0017,"dx":0.0017,"nx":28,"ny":28,"refTime":"2025-06-09T21:00:00:Z","depth":0,"parameterNumber":2,"parameterNumberName":"U-component_of_WINDS"},"data":[0,0,0,0,0,0,0,0,0,0,0,0,0,0,0,0,0,0,0,0,0,0,0,0,0,0,0,0,0,0,0,0,0,0,0,0,0,0,0,0,0,0,0,0,0,0,0,0,0,0,0,0,0,0,0,0,0,0,2.9199,2.92,0,2.9309,2.931,2.9311,2.929,2.9288,2.9287,2.9285,2.9403,2.9408,2.9413,0,0,0,0,0,0,0,0,0,0,0,0,0,2.898,2.8984,2.9199,2.92,2.9202,2.9309,2.931,2.9312,2.9291,2.9288,2.9286,2.9284,2.9402,2.9408,2.9414,0,0,0,0,0,0,0,0,0,0,0,0,0,2.9081,2.8986,2.9199,2.9204,2.9206,2.9308,2.931,2.9312,2.9291,2.9288,2.9285,2.9283,2.94,2.9407,2.9414,2.952,0,0,2.9437,2.9441,0,0,0,0,0,0,0,0,2.9075,2.9089,2.9202,2.9204,2.9206,2.9283,2.9276,2.9382,2.9292,2.9259,2.9285,2.9281,2.9366,2.9376,2.9403,2.9526,2.9531,2.9438,2.9443,2.9446,2.9448,0,0,0,0,0,0,0,2.9069,2.9085,2.9243,2.9204,2.9206,2.9204,2.9215,2.9296,2.9328,2.9262,2.926,2.9273,2.9367,2.9396,2.9406,2.9533,2.9438,2.9444,2.9449,2.9452,2.9753,2.9756,0,0,0,0,0,0,2.9059,2.9079,2.9239,2.9246,2.9132,2.921,2.9223,2.9261,2.9327,2.9334,2.9276,2.9272,2.9385,2.9397,2.941,2.9541,2.9446,2.9453,2.9457,2.9749,2.9753,2.9757,0,0,0,0,0,0,2.9054,2.9073,2.9235,2.9162,2.9182,2.9217,2.9261,2.9265,2.9294,2.9338,2.9344,2.93,2.9383,2.94,2.9494,2.9545,2.9456,2.9463,2.9745,2.975,2.9755,2.9802,0,0,0,0,0,0,2.9048,2.9072,2.911,2.9163,2.9186,2.9314,2.9264,2.9269,2.9307,2.9303,2.9362,2.9369,2.9382,2.9483,2.9501,2.9553,2.9469,2.9741,2.9747,2.9754,2.9796,2.9808,2.9819,0,0,0,0,0,2.904,2.9119,2.9112,2.9131,2.9234,2.9317,2.933,2.9342,2.9311,2.9351,2.938,2.9367,2.9536,2.9492,2.9513,2.9568,2.9737,2.9746,2.9753,2.9791,2.9806,2.9818,0,0,0,0,0,0,2.9072,2.9126,2.9118,2.9216,2.9262,2.9313,2.9364,2.9357,2.9413,2.9408,2.9422,2.9436,2.9532,2.956,2.951,2.9677,2.9633,2.9645,2.9655,2.9669,2.968,2.9672,2.9475,0,0,0,0,0,2.909,2.915,2.9195,2.9277,2.9301,2.9329,2.9365,2.937,2.9419,2.9438,2.9473,2.9523,2.9588,2.963,2.9692,2.98,2.9815,2.9849,2.986,2.9869,2.988,2.9943,2.996,2.9783,2.9783,2.9783,0,0,2.9129,2.9166,2.9203,2.9285,2.9321,2.9385,2.9345,2.9414,2.9463,2.9449,2.954,2.9568,2.9625,2.9728,2.9775,2.9754,2.9933,2.9879,2.9886,2.9892,2.9953,2.997,2.9985,2.9788,2.9787,2.9786,0,0,2.9233,2.9265,2.9339,2.9376,2.9431,2.9449,2.9467,2.952,2.9538,2.9629,2.9621,2.9682,2.9792,2.9833,2.9869,2.9993,2.9985,3.0013,3.0072,3.0133,3.0147,3.016,3.0206,3.0223,3.0024,3.0024,3.0024,0,2.9274,2.9368,2.9378,2.9449,2.9487,2.9477,2.9554,2.959,2.9663,2.9691,2.9666,2.9807,2.9844,2.9958,2.9989,3.0017,3.0041,3.0006,3.0144,3.0157,3.0169,3.0213,3.023,3.0027,3.0027,3.0026,3.0026,0,2.9418,2.9485,2.9538,2.9607,2.9652,2.9725,2.9749,2.9793,2.9796,2.9819,2.9914,2.9959,3.0031,3.0059,3.0062,3.0175,3.0161,3.014,3.0096,3.0189,3.0231,3.0248,3.0032,3.003,3.003,3.0029,0,0,2.9543,2.9619,2.9638,2.9671,2.9733,2.9786,2.9861,2.993,2.9969,3.0021,3.0086,3.0182,3.0164,3.0205,3.0214,3.0267,3.0366,3.0241,3.0243,3.0264,3.0497,3.0512,3.0531,3.0361,3.0364,3.0367,3.0492,0,2.9653,2.9782,2.9796,2.9913,2.9976,2.997,3.0036,3.0083,3.0107,3.0167,3.0195,3.0263,3.0233,3.0258,3.0311,3.0343,3.0413,3.0334,3.0425,3.0428,3.0411,3.0553,3.0569,3.0685,3.0509,3.0511,3.0513,0,2.9798,2.9854,2.9977,3.0033,3.006,3.0119,3.0185,3.0241,3.0296,3.031,3.0358,3.036,3.0442,3.0395,3.0509,3.0455,3.0494,3.0516,3.052,3.053,3.0476,3.0568,3.0722,3.074,3.0539,3.0537,3.0535,0,2.9879,2.9985,3.0073,3.0101,3.0168,3.021,3.0241,3.0292,3.0334,3.0394,3.0422,3.049,3.0528,3.0583,3.0606,3.0569,3.072,3.0674,3.0737,3.0736,3.0768,3.0766,3.0932,3.0792,3.0792,3.0791,3.0791,0,3.0001,3.0077,3.011,3.0165,3.0252,3.0268,3.0354,3.0383,3.043,3.0493,3.0492,3.0552,3.0577,3.0642,3.0661,3.0754,3.0771,3.0787,3.0791,3.0787,3.0786,3.0813,3.0806,3.0796,3.0795,3.0794,3.0793,0,3.0105,3.013,3.0226,3.0282,3.0298,3.036,3.041,3.0465,3.0489,3.0568,3.0588,3.0628,3.0704,3.0732,3.0825,3.0838,3.0947,3.0944,3.0928,3.0929,3.099,3.0985,3.118,3.1208,3.1048,3.105,3.1051,0,3.0181,3.024,3.0303,3.0344,3.0375,3.0441,3.0485,3.0505,3.055,3.0619,3.0667,3.0742,3.0803,3.0927,3.0965,3.1038,3.1037,3.1101,3.1048,3.1044,3.1041,3.1037,3.1044,3.1111,3.1112,3.1114,3.1115,0,3.0315,3.0325,3.0386,3.0453,3.0504,3.0558,3.0611,3.0645,3.0674,3.0726,3.0803,3.0851,3.0946,3.1023,3.1098,3.1132,3.113,3.1131,3.115,3.1147,3.1136,3.1145,3.0956,3.1127,3.1126,3.1125,3.1124,3.1124,3.0408,3.0461,3.0515,3.0584,3.0626,3.0676,3.073,3.0762,3.0827,3.0905,3.0914,3.0998,3.1056,3.1156,3.1194,3.1262,3.1245,3.1272,3.1279,3.1285,3.129,3.1125,3.1276,3.1276,3.1275,3.1275,3.1275,0,3.0543,3.0578,3.0642,3.0715,3.0771,3.0762,3.0821,3.0869,3.0942,3.0996,3.1056,3.1148,3.1223,3.1268,3.1345,3.1391,3.1392,3.141,3.1408,3.1416,3.13,3.1277,3.1408,3.1408,3.1408,3.1408,3.1408,3.1408,3.062,3.071,3.0728,3.0841,3.0875,3.0956,3.0991,3.1039,3.1082,3.1183,3.1245,3.1273,3.1325,3.1406,3.1476,3.1487,3.1516,3.1537,3.1547,3.1438,3.1424,3.1411,3.139,3.1542,3.1543,3.1658,3.1659,3.166]},{"header":{"parameterUnit":"m.s-1","parameterCategory":1,"la1":30.2991,"la2":30.254,"lo1":-89.0895,"lo2":-89.0444,"dy":0.0017,"dx":0.0017,"nx":28,"ny":28,"refTime":"2025-06-09T21:00:00:Z","depth":0,"parameterNumber":3,"parameterNumberName":"V-component_of_WINDS"},"data":[0,0,0,0,0,0,0,0,0,0,0,0,0,0,0,0,0,0,0,0,0,0,0,0,0,0,0,0,0,0,0,0,0,0,0,0,0,0,0,0,0,0,0,0,0,0,0,0,0,0,0,0,0,0,0,0,0,0,5.6675,5.6678,0,5.6988,5.6991,5.6995,5.7014,5.701,5.7007,5.7003,5.7316,5.7327,5.7339,0,0,0,0,0,0,0,0,0,0,0,0,0,5.6084,5.6095,5.6674,5.6678,5.6682,5.6987,5.6991,5.6996,5.7014,5.701,5.7006,5.7002,5.7312,5.7326,5.734,0,0,0,0,0,0,0,0,0,0,0,0,0,5.6363,5.6098,5.6674,5.6729,5.6737,5.6986,5.6992,5.6997,5.7015,5.701,5.7005,5.7,5.7307,5.7324,5.7342,5.7555,0,0,5.7395,5.7402,0,0,0,0,0,0,0,0,5.6347,5.6384,5.6717,5.6725,5.6735,5.6956,5.6898,5.7184,5.7017,5.6909,5.7003,5.6997,5.72,5.7226,5.7296,5.757,5.7583,5.7396,5.7407,5.7414,5.7419,0,0,0,0,0,0,0,5.6328,5.6371,5.6798,5.6721,5.6733,5.6735,5.6768,5.6952,5.708,5.6918,5.692,5.6958,5.7204,5.7279,5.7303,5.7588,5.7396,5.7411,5.7422,5.7429,5.8051,5.8057,0,0,0,0,0,0,5.6299,5.6355,5.6788,5.6808,5.6524,5.675,5.6787,5.689,5.7078,5.7102,5.6962,5.6957,5.7252,5.7283,5.7314,5.7577,5.7414,5.7431,5.7441,5.8045,5.8052,5.8059,0,0,0,0,0,0,5.6286,5.6338,5.6776,5.6582,5.6638,5.6765,5.6881,5.6899,5.6975,5.7112,5.7133,5.7016,5.7249,5.729,5.7496,5.7588,5.7438,5.7454,5.8038,5.8047,5.8056,5.8104,0,0,0,0,0,0,5.6269,5.6333,5.6418,5.6584,5.6648,5.6954,5.6887,5.6909,5.7006,5.7003,5.7168,5.719,5.7248,5.7469,5.7513,5.761,5.7468,5.803,5.8042,5.8053,5.8095,5.8114,5.813,0,0,0,0,0,5.6248,5.6417,5.6422,5.6474,5.6758,5.696,5.6996,5.7062,5.7013,5.7098,5.7185,5.7185,5.7571,5.749,5.7539,5.7643,5.8025,5.8039,5.8052,5.8087,5.811,5.8129,0,0,0,0,0,0,5.6256,5.644,5.6447,5.6676,5.6802,5.6963,5.7072,5.7084,5.7225,5.7216,5.7288,5.7325,5.7529,5.7606,5.7513,5.7858,5.7792,5.7816,5.7801,5.7825,5.7842,5.7819,5.7482,0,0,0,0,0,5.6284,5.6436,5.6588,5.6774,5.6838,5.6944,5.7034,5.7074,5.7207,5.726,5.7362,5.7488,5.7638,5.7735,5.788,5.8105,5.814,5.82,5.8217,5.8231,5.8251,5.8375,5.8403,5.8104,5.8104,5.8103,0,0,5.6344,5.6464,5.6555,5.6779,5.6882,5.7035,5.6989,5.7153,5.7266,5.7284,5.7485,5.7564,5.771,5.7926,5.8026,5.7996,5.8341,5.8248,5.8258,5.8272,5.8392,5.842,5.8445,5.8113,5.8111,5.811,0,0,5.6533,5.6639,5.6806,5.691,5.7067,5.7137,5.7176,5.7336,5.739,5.7593,5.761,5.7743,5.8,5.8103,5.8189,5.8414,5.8419,5.8459,5.8551,5.8671,5.8694,5.8716,5.8796,5.8824,5.8478,5.8479,5.8479,0,5.6587,5.6822,5.689,5.7055,5.7152,5.7177,5.7345,5.7442,5.7637,5.7702,5.7666,5.7989,5.8088,5.8328,5.8383,5.8452,5.8498,5.8442,5.8686,5.8708,5.8729,5.8806,5.8836,5.8483,5.8482,5.8482,5.8481,0,5.6881,5.7042,5.7158,5.7349,5.7459,5.7624,5.7715,5.7817,5.7846,5.7918,5.8124,5.8244,5.8414,5.8473,5.8502,5.8717,5.8694,5.8671,5.8606,5.876,5.8834,5.8864,5.8488,5.8487,5.8486,5.8485,0,0,5.7084,5.7311,5.7352,5.7439,5.7613,5.7738,5.7903,5.8072,5.8158,5.829,5.843,5.8645,5.8625,5.8722,5.8763,5.8867,5.9038,5.8832,5.8836,5.8866,5.9281,5.9299,5.9332,5.9041,5.9047,5.9052,5.9269,0,5.7293,5.7592,5.7657,5.7913,5.8062,5.8087,5.823,5.8351,5.8422,5.8556,5.8632,5.8785,5.8747,5.8806,5.891,5.8995,5.9122,5.898,5.9169,5.9175,5.9134,5.9371,5.939,5.959,5.9299,5.9304,5.9307,0,5.7576,5.7719,5.7991,5.8145,5.821,5.8339,5.8498,5.8627,5.8762,5.8806,5.8915,5.8944,5.9113,5.9038,5.9271,5.9173,5.9253,5.9306,5.9316,5.9337,5.9252,5.9399,5.9655,5.9686,5.9353,5.935,5.9346,0,5.7699,5.7958,5.8154,5.8227,5.8412,5.8501,5.8582,5.8713,5.8809,5.8947,5.901,5.9164,5.9249,5.9366,5.9434,5.9374,5.9662,5.9593,5.9702,5.97,5.9763,5.9758,6.0037,5.9813,5.9812,5.9812,5.9811,0,5.7925,5.8091,5.8212,5.8333,5.8518,5.8589,5.8769,5.8848,5.8965,5.9099,5.9127,5.9252,5.9334,5.947,5.9523,5.9708,5.9745,5.9784,5.9797,5.9783,5.9778,5.9838,5.9826,5.982,5.9818,5.9816,5.9815,0,5.8094,5.8182,5.8398,5.8555,5.8598,5.8728,5.8861,5.8977,5.9047,5.9217,5.926,5.937,5.9531,5.9611,5.9809,5.9845,6.0054,6.0057,6.001,6.0015,6.012,6.0109,6.0447,6.0495,6.0238,6.024,6.0242,0,5.8234,5.8363,5.8534,5.8628,5.8711,5.8861,5.8961,5.9034,5.9136,5.93,5.9396,5.9558,5.9693,5.9948,6.0043,6.0195,6.0202,6.031,6.0225,6.0207,6.0205,6.0197,6.021,6.0326,6.0328,6.033,6.0332,0,5.8473,5.851,5.8655,5.8815,5.8933,5.9062,5.9188,5.9261,5.9354,5.9467,5.9633,5.9738,5.9941,6.0102,6.026,6.0339,6.0351,6.0357,6.0391,6.0379,6.0346,6.0366,6.0052,6.035,6.0348,6.0347,6.0346,6.0345,5.8633,5.8748,5.8887,5.9046,5.9149,5.9266,5.9384,5.947,5.9611,5.9785,5.9818,5.9994,6.0124,6.0338,6.0422,6.0558,6.0534,6.0583,6.0595,6.0606,6.0612,6.0323,6.0587,6.0587,6.0586,6.0586,6.0586,0,5.8874,5.8965,5.9111,5.9288,5.9412,5.9414,5.9553,5.9657,5.9813,5.9934,6.0066,6.0256,6.0411,6.0518,6.0675,6.0764,6.0773,6.0802,6.0797,6.0815,6.0624,6.058,6.0792,6.0792,6.0792,6.0792,6.0792,6.0792,5.9014,5.921,5.9263,5.9508,5.9596,5.9772,5.9851,5.9958,6.0056,6.0268,6.0398,6.0468,6.0583,6.0748,6.089,6.0917,6.0973,6.1003,6.103,6.085,6.0829,6.0808,6.0767,6.1015,6.1015,6.121,6.1212,6.1213]}]]